GFSSW_prec_cloud_132.txt.gz
Cloud_Cover
5 5 5 5 5 84 98 100 100 100 100 100 100 100 100 100 79 5 58 0 0 0 0 0 0 0 42 100 5 5 0 0 0 5 100 100 100 0 0 65 4 5 0 73 9
5 18 5 5 5 7 5 19 62 100 100 100 100 100 100 100 58 56 0 0 0 0 0 0 0 0 4 22 1 3 0 3 34 92 100 100 99 4 0 0 1 5 5 37 5
5 6 11 5 5 5 5 5 20 23 100 100 100 100 100 98 62 94 24 5 0 0 0 0 0 0 0 5 5 0 3 12 100 100 100 100 93 96 31 2 0 3 5 3 5
14 8 64 73 98 63 5 50 92 85 13 75 100 100 100 94 57 8 5 5 5 0 0 0 0 0 0 0 5 1 100 49 100 100 100 100 11 59 100 14 0 6 5 7 83
100 57 100 100 18 5 5 7 8 49 100 100 98 100 100 95 100 63 22 1 2 0 0 0 0 0 0 0 0 4 77 88 97 100 100 99 5 85 55 27 0 5 4 5 89
75 5 4 5 69 47 59 42 46 100 100 100 100 100 99 100 100 39 5 0 0 3 18 0 0 0 0 0 0 0 2 2 21 95 100 89 53 5 20 3 5 5 5 4 96
3 5 5 4 5 38 48 71 100 97 82 100 96 34 100 98 100 58 88 5 0 5 5 5 0 0 0 0 0 0 0 0 0 11 9 5 99 5 5 5 3 35 75 29 100
96 66 0 0 5 2 2 5 24 37 97 100 79 31 100 100 100 100 78 82 10 59 100 14 4 0 0 0 0 0 0 0 0 2 5 2 49 98 87 2 5 5 81 100 99
100 97 0 0 0 0 0 0 0 9 22 71 100 99 86 100 100 100 34 3 71 0 83 13 4 0 0 0 0 0 0 0 0 0 0 2 6 100 100 58 73 5 73 97 100
100 99 0 0 51 0 28 0 0 0 0 17 82 67 6 20 100 100 35 54 27 95 4 0 2 0 0 0 0 0 0 0 0 0 0 3 1 100 99 100 67 47 1 92 100
100 6 5 5 4 0 3 8 0 0 5 35 9 5 0 0 0 2 4 63 1 84 5 0 3 4 0 4 5 0 0 0 0 0 0 0 4 74 100 37 100 99 4 2 99
5 5 5 0 1 2 5 31 50 99 90 4 2 3 0 0 0 98 85 96 8 3 22 3 0 15 14 0 5 5 1 0 0 0 0 0 0 5 100 6 98 81 4 0 7
2 1 0 2 5 4 31 30 66 83 93 17 1 0 8 1 0 95 100 100 100 97 62 6 44 39 6 44 46 35 6 0 0 0 0 0 0 0 51 67 20 100 32 4 0
0 0 2 41 80 18 2 4 94 100 100 26 35 93 74 84 31 98 100 100 98 88 100 100 99 52 70 62 100 100 97 2 0 0 0 0 0 0 0 60 31 66 99 48 5
0 1 31 63 100 100 22 100 55 88 82 6 100 100 100 64 1 58 100 100 100 100 90 26 74 58 7 23 91 100 16 0 0 0 4 0 4 0 5 0 3 36 100 35 100
2 89 100 93 95 59 30 90 83 98 47 93 100 100 100 99 4 100 100 100 100 100 100 100 100 100 100 100 100 100 30 1 0 4 2 4 2 0 16 0 0 0 83 92 72
74 62 69 84 94 100 54 55 92 92 38 100 100 100 100 96 5 95 100 100 100 100 76 100 97 87 100 100 100 92 5 0 0 0 19 100 57 0 2 4 4 18 4 21 7
97 3 46 100 100 100 100 87 99 79 100 100 100 100 100 100 27 100 100 100 100 100 98 100 25 79 75 57 99 100 5 5 17 72 97 73 11 93 92 94 45 9 54 99 16
0 2 97 100 100 100 100 100 100 100 99 100 100 100 100 92 100 100 100 100 100 100 100 100 100 100 100 100 38 18 24 100 96 5 55 3 6 100 98 98 100 3 1 4 5
75 25 60 94 100 100 100 100 100 100 100 92 100 100 100 36 88 100 100 99 89 100 100 100 100 100 100 88 91 100 100 82 5 5 100 100 96 100 77 100 100 99 78 69 100
4 38 100 100 100 100 100 100 100 100 100 100 100 100 100 99 100 100 66 82 90 100 100 100 100 100 88 98 100 100 100 9 0 0 100 100 98 36 100 100 100 100 94 41 32
97 78 94 86 100 100 100 100 100 100 100 100 100 100 100 100 100 100 100 100 100 100 100 100 100 100 100 100 100 100 5 0 0 3 2 72 18 100 44 56 100 100 100 100 95
100 39 100 99 100 100 100 100 100 100 100 100 100 100 100 100 100 100 100 99 98 100 71 89 83 67 100 85 14 5 5 5 5 5 100 100 100 100 100 100 100 100 100 100 100
74 100 100 100 100 100 100 100 100 100 100 100 100 100 100 100 100 100 100 95 100 100 100 80 95 100 100 100 100 7 5 5 24 90 100 100 100 100 100 100 100 100 100 100 100
93 64 100 98 100 100 100 100 100 100 100 100 100 100 100 100 100 100 100 100 78 65 100 76 100 100 100 100 26 7 84 46 100 98 100 100 100 100 100 100 100 93 100 100 100
95 100 100 100 100 100 100 100 100 100 100 100 100 100 100 100 100 100 98 95 54 99 100 100 100 100 100 99 25 5 98 14 23 57 100 100 100 100 100 100 100 100 100 100 100
52 68 100 100 100 100 100 100 100 100 100 100 100 100 100 100 100 100 100 97 100 100 88 86 100 100 100 100 99 8 72 95 89 100 97 100 100 100 100 100 100 100 98 87 100

GFSSW_prec_cloud_138.txt.gz
Cloud_Cover
100 75 71 99 66 9 6 5 5 5 5 4 78 100 100 100 85 23 13 0 0 0 0 0 0 0 0 0 0 0 34 5 10 98 100 100 57 0 0 0 0 1 11 7 97
100 100 100 100 49 91 41 9 10 13 6 5 2 74 100 100 96 24 5 0 0 0 0 0 0 0 0 0 0 0 0 99 100 100 100 100 100 24 0 0 0 0 10 34 92
100 100 65 86 98 10 6 20 56 88 90 6 5 5 100 96 100 42 31 50 0 0 0 0 0 0 0 0 0 0 0 100 100 100 100 100 100 97 30 0 0 0 0 2 13
100 100 100 100 100 98 15 14 8 12 85 58 8 5 35 92 21 100 32 74 7 2 7 0 0 0 0 0 0 0 0 59 100 100 100 100 100 100 69 18 0 0 4 0 5
100 100 100 100 100 100 100 78 14 26 11 66 100 70 50 54 98 60 5 5 100 29 10 0 0 0 0 0 0 0 0 1 100 100 100 100 100 71 6 29 10 0 2 4 5
100 100 100 100 100 100 100 100 35 0 17 11 84 100 97 100 100 86 5 5 13 100 21 1 0 0 0 0 0 0 0 0 53 100 100 100 100 100 27 4 17 5 5 0 3
100 100 100 100 100 65 100 0 1 0 0 98 33 100 100 82 86 81 19 1 5 65 100 91 0 0 0 0 0 0 0 0 0 69 100 100 67 99 7 5 2 0 5 5 5
0 0 0 0 6 12 8 0 0 0 1 96 100 96 100 0 0 2 2 6 9 100 100 100 95 2 4 0 0 0 0 0 0 0 68 53 100 32 5 5 5 0 0 5 5
93 72 10 6 10 3 1 3 16 32 97 92 97 100 65 0 0 0 0 1 3 99 100 100 98 55 0 0 1 0 0 0 0 0 0 91 100 100 40 5 5 5 0 0 5
100 92 0 4 6 23 38 37 0 1 39 84 100 90 2 0 0 0 69 0 0 21 100 82 26 100 5 0 1 0 0 0 0 0 0 8 100 100 100 42 5 13 22 0 1
76 88 67 0 99 100 100 100 3 4 100 3 22 2 0 3 0 0 99 48 45 0 43 100 25 93 98 5 4 1 0 0 0 0 0 0 23 100 100 100 9 5 96 68 0
76 94 94 100 54 49 85 100 87 88 100 91 4 4 7 0 0 1 10 82 96 41 5 99 98 100 100 100 11 5 4 0 1 0 0 0 0 77 100 100 99 5 5 31 7
72 100 100 89 68 99 14 100 90 100 98 22 5 4 7 10 37 2 1 80 75 26 5 25 68 95 100 100 26 5 5 3 12 5 0 0 0 0 70 93 100 83 5 1 3
100 100 100 100 48 55 100 72 100 34 88 2 2 59 33 25 42 0 3 10 98 1 3 70 39 100 100 100 100 80 15 100 6 5 1 0 0 0 0 4 46 100 100 15 0
100 100 100 100 100 100 100 53 90 91 23 7 39 100 91 81 7 26 2 10 16 2 4 18 100 45 100 100 100 100 100 100 100 0 5 0 0 0 0 0 1 13 5 5 5
99 100 98 57 65 100 100 100 97 97 93 99 100 100 100 100 100 100 12 5 36 88 31 100 99 100 100 100 100 100 100 100 100 13 4 2 0 1 1 0 0 0 0 5 0
100 15 26 87 98 100 100 100 100 100 98 100 100 100 100 100 100 100 100 54 100 69 62 100 59 97 100 100 100 100 100 71 32 6 0 5 0 0 4 0 0 0 0 0 0
34 0 95 5 100 100 100 100 100 100 100 100 100 100 100 100 100 91 100 53 87 64 47 100 100 95 100 100 98 100 100 58 4 4 1 18 15 10 3 2 0 0 0 0 0
1 6 77 14 86 100 100 100 100 100 100 100 100 100 92 100 100 93 66 71 100 100 46 100 40 25 100 100 100 100 100 30 5 5 20 5 5 0 0 1 0 0 0 0 0
72 68 16 55 56 100 100 100 100 100 100 100 100 100 100 99 100 89 56 96 100 100 40 40 99 100 97 100 100 100 100 47 31 85 36 5 4 4 1 5 5 2 1 4 34
25 0 99 100 33 100 100 100 100 100 100 100 100 100 98 100 78 100 94 100 100 100 100 100 100 100 100 99 100 97 35 10 41 57 53 5 5 2 0 0 0 2 9 94 61
27 0 100 100 97 100 100 100 100 100 100 100 100 100 100 100 100 100 100 100 100 100 100 98 100 100 97 97 100 100 100 100 100 99 50 69 4 0 0 5 0 26 66 75 38
97 36 70 100 100 100 100 100 100 100 100 100 100 100 100 100 100 100 100 100 100 100 100 100 100 99 99 100 100 99 100 85 54 72 48 12 4 5 4 5 5 47 62 98 80
5 8 26 100 100 100 100 100 100 100 100 100 100 100 100 100 100 100 100 100 100 100 100 100 100 87 35 53 62 26 29 57 43 8 5 5 0 0 1 0 39 100 71 100 100
16 18 87 100 81 100 100 100 100 100 100 100 100 100 99 100 100 100 100 100 100 100 100 100 100 100 100 98 5 39 68 59 54 74 5 0 1 3 0 2 100 94 94 100 100
61 88 89 100 89 100 100 100 100 100 100 100 100 100 100 100 100 100 100 100 100 100 100 100 100 100 4 4 5 5 5 5 37 5 5 5 5 5 59 100 100 100 100 100 100
100 59 100 74 100 100 100 100 100 100 100 100 100 100 100 100 100 100 100 100 100 100 100 100 100 7 43 21 5 11 26 17 5 38 33 5 3 5 96 100 100 100 100 100 100

GFSSW_prec_cloud_141.txt.gz
Cloud_Cover
100 100 100 100 100 86 44 57 80 93 13 5 5 5 18 100 72 5 23 0 0 0 0 0 0 0 0 0 0 0 0 0 15 100 99 70 69 1 0 0 0 2 5 28 98
100 100 100 100 100 100 32 8 2 0 31 93 15 5 5 91 12 48 86 5 2 0 0 0 0 0 0 0 0 0 0 0 17 100 100 100 39 30 2 0 0 0 59 98 98
100 100 100 100 100 100 100 100 4 12 18 8 100 82 7 29 34 5 99 25 10 2 0 0 0 0 0 0 0 0 0 0 0 76 100 100 59 2 5 1 0 0 24 98 50
100 100 100 100 100 100 100 100 42 10 97 62 6 97 100 76 3 5 14 6 5 5 70 2 0 0 0 0 0 0 0 0 0 1 100 100 99 0 0 5 4 0 2 33 95
97 18 84 100 90 98 100 100 100 3 36 5 25 24 87 73 42 35 14 50 5 39 47 5 0 0 0 0 0 0 0 0 0 0 94 100 100 5 0 0 4 28 1 0 81
3 12 1 28 71 78 100 100 100 61 50 96 83 76 93 100 1 0 35 82 12 5 19 44 5 2 0 0 0 0 0 0 0 0 2 100 78 5 0 0 0 18 63 2 3
95 84 90 6 0 1 7 39 0 0 77 100 100 100 98 73 0 0 0 1 1 58 36 45 5 5 2 0 0 0 0 0 0 0 0 1 96 5 0 0 0 0 2 7 5
100 100 99 0 0 8 35 77 5 30 100 100 100 100 97 0 0 5 0 0 3 99 64 97 7 5 12 1 0 0 0 0 0 0 0 0 2 6 0 0 0 0 0 0 67
100 100 96 16 16 66 100 81 75 85 100 100 100 98 30 1 3 14 1 0 0 59 100 7 17 5 15 42 1 0 0 0 0 0 0 0 1 3 8 3 0 1 0 0 0
100 100 100 41 100 80 32 30 1 7 40 93 100 83 2 0 0 1 66 1 0 3 100 75 0 3 5 21 7 0 0 0 0 0 0 0 0 5 9 5 5 5 5 2 0
100 100 97 100 100 17 45 7 5 6 98 12 10 1 0 0 0 17 99 55 6 0 100 100 4 1 5 97 100 4 4 0 0 2 0 0 0 0 58 62 5 5 5 86 5
100 100 100 100 66 6 16 5 77 61 78 13 5 85 2 0 15 68 7 99 47 0 100 70 62 5 12 100 100 100 5 13 3 4 1 0 0 0 6 9 19 5 5 67 68
100 100 100 100 2 38 19 17 7 100 85 4 2 5 7 3 6 8 3 45 77 0 12 8 42 73 15 100 100 100 98 90 100 85 3 0 0 0 0 0 0 5 16 5 5
100 100 100 48 28 6 98 33 100 100 89 47 19 12 71 45 48 0 0 12 82 8 2 68 83 19 25 100 100 100 100 100 100 100 3 4 1 0 0 0 0 0 2 5 5
100 100 100 100 85 100 100 100 100 100 100 100 100 100 89 100 80 74 2 3 70 10 2 8 54 99 20 100 100 100 100 100 100 100 37 4 5 0 0 0 0 0 0 0 5
100 100 100 27 97 40 100 100 100 100 100 100 100 100 100 100 100 100 13 25 6 72 4 36 100 18 91 100 100 100 100 100 100 100 100 97 5 38 36 1 0 0 0 0 0
75 21 13 11 5 97 100 100 100 100 100 100 100 100 100 100 100 100 100 72 6 100 80 47 100 74 76 100 100 100 100 100 100 100 80 100 69 10 10 5 0 0 0 0 0
0 0 5 5 9 99 100 100 100 100 100 100 100 100 100 100 100 100 100 74 27 45 5 9 100 15 51 100 100 100 100 100 100 100 10 57 28 38 5 5 5 0 0 0 0
0 0 5 5 9 74 100 100 100 100 100 100 99 100 100 100 100 100 100 69 4 100 34 98 87 45 96 100 100 100 100 100 100 100 100 76 12 100 100 18 5 5 0 0 0
27 0 5 96 17 100 100 99 100 100 100 100 100 100 100 71 26 100 96 43 61 100 70 100 75 90 100 100 100 100 100 100 100 100 100 100 57 32 21 57 5 0 5 0 0
4 0 5 88 18 100 100 100 100 100 100 100 100 100 90 100 11 32 4 17 100 100 78 100 75 99 98 19 49 70 94 100 100 100 100 100 100 56 5 10 49 88 36 91 98
0 2 5 99 86 100 100 100 100 100 100 100 100 100 100 100 93 100 98 100 98 100 100 100 100 48 31 58 100 100 100 100 100 100 100 100 100 100 8 6 5 45 100 100 100
53 0 5 5 100 100 100 100 100 100 100 100 100 100 100 100 100 95 100 100 100 82 100 100 100 100 100 94 90 98 100 100 100 100 100 100 100 82 5 5 18 100 100 100 100
0 2 4 5 96 100 100 100 100 100 100 100 100 100 100 100 100 100 100 100 100 100 47 91 56 30 34 66 100 87 78 100 100 100 100 100 100 71 13 88 100 100 100 100 48
1 7 91 97 92 100 100 100 100 100 100 100 100 100 92 85 100 100 100 100 100 100 100 100 20 55 100 79 100 100 100 100 100 100 100 100 15 5 8 100 100 100 100 62 17
53 92 75 100 100 100 100 100 100 100 100 100 100 100 100 100 100 100 100 100 100 100 100 100 100 100 99 99 100 100 100 100 99 8 5 5 5 5 21 100 100 100 88 49 100
99 98 100 43 96 100 99 100 100 100 100 100 100 100 100 100 100 100 100 100 100 100 100 100 100 99 74 25 78 72 46 42 5 5 5 5 6 50 74 95 93 100 66 33 99

GFSSW_prec_cloud_144.txt.gz
Cloud_Cover
100 100 100 100 100 100 100 36 33 31 6 0 12 26 0 1 4 17 31 7 1 0 0 0 0 0 0 0 0 0 0 0 0 1 100 73 11 6 0 0 0 0 1 5 88
100 100 100 100 100 99 95 100 100 36 36 22 8 7 32 0 4 22 93 5 5 4 0 4 0 0 0 0 0 0 0 0 0 0 94 41 100 6 5 0 0 0 0 3 5
100 100 22 99 99 72 100 100 100 100 99 100 27 15 71 14 3 19 97 76 11 5 5 5 5 0 0 0 0 0 0 0 0 0 0 6 100 5 17 5 5 0 0 0 5
65 0 30 0 0 17 2 90 78 44 100 97 46 2 9 73 1 0 93 65 58 6 49 10 14 4 0 0 0 0 0 0 0 0 0 0 4 12 8 24 10 8 0 0 0
30 13 91 100 99 46 11 53 68 37 10 26 68 36 50 87 20 2 4 42 33 5 11 12 35 5 0 0 0 0 0 0 0 0 0 0 0 5 10 4 3 100 46 0 0
10 100 100 100 85 56 12 0 2 0 0 0 73 99 86 88 0 4 0 44 15 22 93 5 17 18 5 0 0 0 0 0 0 0 0 0 0 0 5 4 5 21 100 36 0
43 56 100 100 100 20 30 0 3 1 5 12 100 59 80 0 0 0 0 0 77 99 79 87 5 40 5 5 0 0 0 0 0 0 0 0 0 0 0 79 6 5 11 100 35
100 100 100 100 86 16 50 5 2 52 91 77 90 90 100 3 0 0 0 0 0 70 23 82 93 5 67 5 6 0 0 0 0 0 0 0 0 0 0 0 25 5 4 13 97
100 100 100 100 100 91 35 0 29 100 94 100 98 98 39 2 0 14 4 4 1 2 6 15 100 4 5 6 45 5 1 0 0 0 0 0 0 0 0 0 0 64 5 4 2
100 100 82 100 97 91 7 0 0 13 46 87 100 88 3 2 2 26 30 7 5 0 15 77 98 4 5 12 17 63 9 0 0 0 0 0 0 0 0 0 0 24 98 7 5
100 72 100 100 100 100 27 15 51 58 95 41 12 2 4 4 0 59 21 35 14 0 15 85 100 0 4 27 100 100 99 6 0 0 0 0 0 0 0 0 0 0 86 100 92
100 100 100 100 61 3 40 100 42 35 63 65 6 14 20 30 71 78 5 64 32 0 44 100 58 25 69 59 100 83 100 16 5 1 0 0 0 0 0 0 0 0 4 62 100
100 100 100 100 2 31 11 28 21 31 88 11 24 62 5 44 43 79 53 70 87 19 43 43 25 96 76 8 100 100 100 100 84 45 2 0 0 0 0 0 0 0 0 2 6
100 100 100 77 23 5 90 99 100 67 100 22 84 98 27 5 83 3 9 14 47 21 5 90 100 50 100 30 100 100 100 100 100 95 26 0 0 0 0 0 0 0 0 0 0
100 100 70 95 10 64 58 100 98 99 99 83 84 100 95 92 100 100 5 5 71 95 97 100 95 100 92 90 100 100 100 100 100 100 99 5 0 0 0 0 0 0 0 0 5
67 22 2 41 53 86 87 100 99 100 100 84 100 95 100 100 100 100 100 33 18 100 50 100 99 100 92 100 100 100 100 100 100 100 100 55 5 0 0 0 0 0 0 0 0
1 1 0 10 72 82 100 100 100 100 100 100 94 100 100 100 100 100 100 100 58 96 100 62 92 100 100 100 100 100 100 100 100 100 100 100 24 5 2 1 0 0 0 0 0
2 17 0 14 88 100 100 100 100 100 100 100 100 97 100 100 100 100 100 100 74 9 99 42 100 99 99 32 28 31 98 100 100 100 100 99 70 5 5 5 5 0 0 0 0
2 0 4 5 54 93 100 100 100 100 100 100 100 100 96 99 100 100 100 100 9 31 90 99 100 97 11 63 69 100 100 100 100 100 100 100 100 100 20 5 5 5 4 0 0
0 0 1 5 18 61 100 100 100 100 100 100 100 100 100 77 100 100 100 100 41 81 100 100 100 100 88 100 98 100 100 100 100 100 100 100 100 100 100 100 32 76 5 1 0
4 3 0 0 18 100 100 100 100 100 100 100 100 100 97 43 75 96 90 9 56 54 56 64 99 92 100 66 5 100 100 100 100 100 100 100 100 100 100 68 5 59 98 10 98
5 1 0 42 82 100 100 100 100 100 100 100 100 100 100 100 83 5 5 92 71 90 100 100 100 21 0 2 13 100 100 100 100 100 100 100 100 100 100 100 5 97 96 100 100
7 1 3 42 100 100 100 100 100 100 100 100 100 100 100 100 100 96 26 8 95 94 100 100 100 100 100 100 100 100 100 100 100 100 100 100 100 100 100 100 100 100 100 97 33
5 0 4 73 100 100 100 100 100 100 100 100 100 100 100 100 96 100 45 84 100 100 100 89 61 0 4 6 86 100 100 100 100 100 100 100 100 100 100 100 100 100 100 69 29
55 3 88 72 50 100 100 100 100 100 100 100 100 100 100 100 100 78 82 100 100 100 100 91 100 100 100 100 99 100 100 100 100 100 100 100 100 100 60 100 100 100 100 82 9
6 95 96 100 100 94 100 100 100 100 100 100 100 100 100 100 100 100 100 98 100 99 100 100 100 94 99 43 71 100 100 100 100 100 100 96 98 100 89 100 100 100 95 55 47
80 92 100 21 26 61 99 100 100 100 100 100 100 100 100 100 100 100 100 100 100 100 100 100 94 100 30 10 98 100 100 100 100 100 100 100 100 76 83 100 100 100 100 74 56

GFSSW_prec_cloud_147.txt.gz
Cloud_Cover
100 63 57 53 68 3 0 25 37 94 45 45 40 7 4 6 3 4 5 5 0 1 0 0 0 0 0 0 0 0 0 0 0 4 100 100 17 95 85 3 4 5 34 44 15
1 0 0 2 10 28 29 97 31 81 100 100 73 2 7 2 22 0 2 4 3 0 5 0 0 0 0 0 0 0 0 0 0 2 32 100 80 100 100 5 2 38 0 7 1
0 6 49 90 10 76 24 0 0 0 82 94 94 20 0 0 2 0 0 2 5 4 2 5 0 0 0 0 0 0 0 0 0 0 4 0 27 100 76 47 93 12 0 0 0
17 98 100 100 100 19 0 0 0 0 19 94 0 0 0 2 2 0 2 0 0 4 5 5 5 0 0 0 0 0 0 0 0 0 0 0 1 100 45 85 100 52 2 0 0
100 90 100 100 100 19 4 0 2 0 6 0 0 0 1 4 1 26 0 9 67 1 5 5 5 5 0 6 7 0 0 0 0 0 0 0 0 3 28 100 13 2 4 4 0
100 100 97 100 88 100 4 0 24 3 46 0 2 10 17 8 0 0 0 2 4 13 5 5 5 54 5 5 6 43 0 0 0 0 0 0 0 0 1 45 2 5 81 88 2
100 99 40 99 32 1 0 4 4 97 7 13 72 97 99 2 0 5 0 0 0 20 24 26 30 5 61 5 21 81 2 0 0 0 0 0 0 0 0 0 0 100 98 67 64
98 92 100 95 33 0 30 0 0 27 96 84 74 97 100 4 1 0 1 5 3 13 25 100 54 29 39 17 5 66 86 0 0 0 0 0 0 0 0 0 0 52 100 14 74
100 73 92 74 25 0 27 0 0 27 8 52 97 99 42 4 3 0 0 2 6 77 100 93 27 35 100 77 5 27 61 20 0 0 0 0 0 0 0 0 0 1 89 100 30
39 99 100 100 98 10 0 0 4 5 43 90 99 89 3 5 5 5 4 5 5 76 82 67 41 64 56 78 6 42 56 93 5 0 0 0 0 0 0 0 0 0 2 66 100
100 100 100 100 97 94 3 14 70 90 100 63 87 5 5 42 4 32 64 97 6 89 91 68 100 5 5 100 100 100 97 100 100 6 0 0 0 0 0 0 0 0 0 0 27
60 100 100 85 34 3 14 100 84 84 98 30 6 5 67 66 96 90 24 95 89 11 91 96 72 26 64 96 100 100 98 100 100 86 5 1 0 0 0 0 0 0 0 0 0
32 97 10 4 0 33 100 100 42 100 100 100 15 33 11 57 91 36 77 60 80 100 100 74 14 38 100 99 100 99 95 100 100 87 5 5 0 0 0 0 0 0 0 0 0
21 46 21 3 21 78 100 41 50 100 86 100 73 92 24 100 90 42 99 48 55 56 99 50 46 52 100 100 84 100 19 100 100 100 34 10 1 0 0 0 0 0 0 0 0
15 34 7 38 47 100 100 66 100 100 100 99 74 38 100 85 100 100 99 98 96 92 100 94 100 100 99 91 82 98 44 96 100 100 100 83 5 0 0 0 0 0 0 0 0
19 16 3 39 100 100 88 100 100 100 100 84 95 99 100 94 100 94 100 70 83 98 40 99 66 100 97 63 83 100 100 100 100 100 100 99 5 5 0 0 0 0 0 0 0
0 0 0 41 94 46 99 100 100 100 100 88 100 100 100 100 70 100 100 98 24 84 8 100 98 40 100 100 68 100 100 100 100 100 100 98 63 54 0 0 0 0 0 0 0
0 31 7 99 93 43 94 100 100 100 100 95 100 100 98 96 100 100 100 98 5 100 100 80 99 100 63 100 89 68 28 19 7 98 100 100 100 19 4 1 0 0 0 0 0
0 0 74 5 90 47 94 99 100 100 100 100 98 100 100 43 100 100 79 95 4 96 100 100 13 100 93 25 77 98 86 84 100 100 100 100 100 99 5 19 5 0 0 0 0
0 10 17 3 60 94 99 94 100 100 100 100 100 100 100 100 96 92 59 91 92 100 100 100 72 100 35 96 100 73 70 100 95 100 100 100 100 100 100 100 61 36 4 0 0
0 94 1 5 19 69 100 100 100 100 100 100 100 100 100 100 99 97 100 100 2 100 100 92 100 100 100 100 67 98 100 100 100 100 100 100 100 100 100 100 100 100 24 6 5
0 3 3 5 55 100 100 100 100 100 100 100 100 100 100 100 100 100 37 98 96 100 48 76 100 100 66 16 24 5 4 74 100 100 100 100 100 100 100 100 100 89 100 40 1
1 4 5 13 53 100 95 100 100 100 100 100 100 100 100 100 100 99 94 15 1 98 29 100 91 100 100 100 100 100 100 100 100 89 100 100 100 100 100 100 100 97 100 100 99
4 0 0 48 99 100 97 100 100 100 100 100 100 100 100 100 99 100 100 100 100 100 76 81 46 92 69 58 63 81 81 100 100 100 100 100 100 100 100 100 100 100 100 86 62
2 0 5 4 30 100 85 100 100 100 100 100 100 100 100 100 98 100 100 100 100 100 100 100 57 80 33 4 38 31 37 100 100 100 100 100 100 100 100 100 100 100 100 100 100
5 20 9 37 99 90 94 99 100 100 100 100 100 100 100 100 100 74 100 100 100 100 100 76 100 96 100 90 100 100 100 100 100 100 100 100 100 100 100 100 100 100 100 100 100
8 11 44 4 57 43 67 100 100 100 96 100 100 100 100 100 100 100 35 70 99 95 99 100 84 19 100 100 100 100 99 100 100 100 100 100 100 100 100 100 100 100 100 100 100